Hourly Weather Bolshie Shali

Today, 24 July, Saturday

Time Temperature Precipitation Wind Pressure Humidity
00:00 +13°C° 0 mm 2 mps 734 mmHg 87%
01:00 +13°C° 0.1 mm 2 mps 735 mmHg 90%
02:00 +13°C° 0.1 mm 2 mps 735 mmHg 93%
03:00 +12°C° 0 mm 2 mps 735 mmHg 96%
04:00 +13°C° 0 mm 2 mps 735 mmHg 95%
05:00 +12°C° 0 mm 3 mps 735 mmHg 93%
06:00 +13°C° 0 mm 3 mps 736 mmHg 92%
07:00 +14°C° 0 mm 3 mps 736 mmHg 84%
08:00 +16°C° 0 mm 3 mps 737 mmHg 77%
09:00 +17°C° 0 mm 3 mps 737 mmHg 69%
10:00 +18°C° 0.1 mm 4 mps 737 mmHg 63%
11:00 +19°C° 0.1 mm 4 mps 738 mmHg 57%
12:00 +19°C° 0.1 mm 4 mps 738 mmHg 52%
13:00 +19°C° 0 mm 4 mps 739 mmHg 49%
14:00 +19°C° 0 mm 4 mps 739 mmHg 47%
15:00 +19°C° 0 mm 4 mps 739 mmHg 44%
16:00 +19°C° 0 mm 4 mps 740 mmHg 46%
17:00 +19°C° 0 mm 4 mps 740 mmHg 47%
18:00 +18°C° 0 mm 3 mps 741 mmHg 49%
19:00 +16°C° 0 mm 3 mps 741 mmHg 54%
20:00 +14°C° 0 mm 2 mps 742 mmHg 60%
21:00 +12°C° 0 mm 2 mps 742 mmHg 65%
22:00 +10°C° 0 mm 2 mps 742 mmHg 64%
23:00 +9°C° 0 mm 2 mps 743 mmHg 63%

Tomorrow, 25 July, Sunday

Time Temperature Precipitation Wind Pressure Humidity
00:00 +10°C° 0 mm 1 mps 743 mmHg 62%
01:00 +9°C° 0 mm 1 mps 744 mmHg 61%
02:00 +9°C° 0 mm 1 mps 744 mmHg 61%
03:00 +8°C° 0 mm 1 mps 744 mmHg 60%
04:00 +10°C° 0 mm 1 mps 745 mmHg 58%
05:00 +11°C° 0 mm 1 mps 746 mmHg 57%
06:00 +12°C° 0 mm 1 mps 746 mmHg 55%
07:00 +14°C° 0 mm 1 mps 746 mmHg 49%
08:00 +16°C° 0 mm 2 mps 747 mmHg 44%
09:00 +18°C° 0 mm 2 mps 747 mmHg 38%
10:00 +19°C° 0 mm 2 mps 747 mmHg 36%
11:00 +20°C° 0 mm 2 mps 747 mmHg 34%
12:00 +20°C° 0 mm 2 mps 747 mmHg 32%
13:00 +21°C° 0 mm 2 mps 747 mmHg 32%
14:00 +21°C° 0 mm 2 mps 747 mmHg 32%
15:00 +21°C° 0 mm 2 mps 747 mmHg 32%
16:00 +20°C° 0 mm 2 mps 747 mmHg 38%
17:00 +19°C° 0 mm 2 mps 747 mmHg 44%
18:00 +19°C° 0 mm 1 mps 747 mmHg 51%
19:00 +18°C° 0 mm 1 mps 748 mmHg 53%
20:00 +16°C° 0 mm 1 mps 748 mmHg 55%
21:00 +13°C° 0 mm 0 mps 748 mmHg 56%
22:00 +14°C° 0 mm 1 mps 748 mmHg 59%
23:00 +13°C° 0 mm 1 mps 748 mmHg 62%

Day after tomorrow, 26 July, Monday

Time Temperature Precipitation Wind Pressure Humidity
00:00 +13°C° 0 mm 2 mps 748 mmHg 64%
01:00 +13°C° 0 mm 1 mps 748 mmHg 64%
02:00 +13°C° 0 mm 1 mps 748 mmHg 64%
03:00 +13°C° 0 mm 1 mps 748 mmHg 65%
04:00 +14°C° 0 mm 1 mps 748 mmHg 64%
05:00 +14°C° 0 mm 1 mps 749 mmHg 64%
06:00 +15°C° 0 mm 1 mps 749 mmHg 63%
07:00 +18°C° 0 mm 1 mps 749 mmHg 56%
08:00 +20°C° 0 mm 1 mps 749 mmHg 50%
09:00 +22°C° 0 mm 1 mps 749 mmHg 43%
10:00 +23°C° 0 mm 2 mps 749 mmHg 40%
11:00 +23°C° 0 mm 2 mps 749 mmHg 38%
12:00 +24°C° 0 mm 3 mps 749 mmHg 35%
13:00 +24°C° 0 mm 2 mps 748 mmHg 40%
14:00 +23°C° 0 mm 2 mps 748 mmHg 44%
15:00 +21°C° 0 mm 2 mps 748 mmHg 49%
16:00 +21°C° 0 mm 2 mps 748 mmHg 51%
17:00 +22°C° 0 mm 1 mps 748 mmHg 53%
18:00 +22°C° 0 mm 1 mps 747 mmHg 55%
19:00 +20°C° 0 mm 1 mps 747 mmHg 58%
20:00 +17°C° 0 mm 2 mps 747 mmHg 62%
21:00 +15°C° 0 mm 2 mps 747 mmHg 65%
22:00 +15°C° 0 mm 2 mps 747 mmHg 67%
23:00 +14°C° 0 mm 2 mps 747 mmHg 69%

27 July, Tuesday

Time Temperature Precipitation Wind Pressure Humidity
00:00 +14°C° 0 mm 2 mps 747 mmHg 70%
01:00 +13°C° 0 mm 2 mps 746 mmHg 72%
02:00 +13°C° 0 mm 2 mps 746 mmHg 74%
03:00 +13°C° 0 mm 2 mps 746 mmHg 75%
04:00 +14°C° 0 mm 2 mps 746 mmHg 73%
05:00 +15°C° 0 mm 2 mps 746 mmHg 70%
06:00 +16°C° 0 mm 3 mps 746 mmHg 68%
07:00 +18°C° 0 mm 3 mps 746 mmHg 63%
08:00 +20°C° 0 mm 3 mps 746 mmHg 57%
09:00 +22°C° 0 mm 4 mps 746 mmHg 52%
10:00 +23°C° 0 mm 4 mps 746 mmHg 49%
11:00 +25°C° 0 mm 4 mps 746 mmHg 45%
12:00 +26°C° 0 mm 4 mps 745 mmHg 41%
13:00 +25°C° 0 mm 4 mps 745 mmHg 43%
14:00 +25°C° 0 mm 3 mps 745 mmHg 45%
15:00 +25°C° 0 mm 3 mps 744 mmHg 47%
16:00 +21°C° 1.7 mm 3 mps 744 mmHg 63%
17:00 +18°C° 1.7 mm 3 mps 744 mmHg 79%
18:00 +16°C° 1.7 mm 3 mps 744 mmHg 95%
19:00 +14°C° 0.5 mm 3 mps 744 mmHg 95%
20:00 +14°C° 0.5 mm 2 mps 744 mmHg 96%
21:00 +14°C° 0.5 mm 2 mps 744 mmHg 97%
22:00 +13°C° 0 mm 2 mps 744 mmHg 96%
23:00 +13°C° 0 mm 2 mps 744 mmHg 96%

28 July, Wednesday

Time Temperature Precipitation Wind Pressure Humidity
00:00 +13°C° 0 mm 2 mps 744 mmHg 96%
01:00 +12°C° 0 mm 2 mps 744 mmHg 96%
02:00 +12°C° 0 mm 2 mps 744 mmHg 95%
03:00 +10°C° 0 mm 2 mps 744 mmHg 95%
04:00 +12°C° 0 mm 2 mps 745 mmHg 92%
05:00 +12°C° 0 mm 1 mps 745 mmHg 90%
06:00 +13°C° 0 mm 1 mps 745 mmHg 87%
07:00 +15°C° 0 mm 2 mps 745 mmHg 74%
08:00 +17°C° 0 mm 2 mps 745 mmHg 62%
09:00 +19°C° 0 mm 2 mps 745 mmHg 49%
10:00 +20°C° 0 mm 2 mps 745 mmHg 45%
11:00 +21°C° 0 mm 2 mps 744 mmHg 41%
12:00 +23°C° 0 mm 2 mps 744 mmHg 37%
13:00 +22°C° 0 mm 3 mps 744 mmHg 36%
14:00 +24°C° 0 mm 3 mps 743 mmHg 35%
15:00 +24°C° 0 mm 3 mps 743 mmHg 33%
16:00 +24°C° 0 mm 3 mps 743 mmHg 39%
17:00 +23°C° 0 mm 2 mps 742 mmHg 45%
18:00 +21°C° 0 mm 2 mps 742 mmHg 51%
19:00 +20°C° 0 mm 2 mps 742 mmHg 54%
20:00 +18°C° 0 mm 2 mps 741 mmHg 57%
21:00 +16°C° 0 mm 2 mps 741 mmHg 59%
22:00 +16°C° 0 mm 2 mps 741 mmHg 60%
23:00 +16°C° 0 mm 2 mps 741 mmHg 61%

29 July, Thursday

Time Temperature Precipitation Wind Pressure Humidity
00:00 +16°C° 0 mm 2 mps 740 mmHg 62%
01:00 +15°C° 0 mm 2 mps 740 mmHg 69%
02:00 +15°C° 0 mm 2 mps 739 mmHg 76%
03:00 +14°C° 0 mm 2 mps 739 mmHg 83%
04:00 +15°C° 0.1 mm 2 mps 739 mmHg 84%
05:00 +14°C° 0.1 mm 3 mps 739 mmHg 85%
06:00 +16°C° 0.1 mm 3 mps 739 mmHg 87%
07:00 +18°C° 0.1 mm 3 mps 739 mmHg 80%
08:00 +20°C° 0.1 mm 3 mps 738 mmHg 73%
09:00 +21°C° 0.1 mm 3 mps 738 mmHg 67%
10:00 +23°C° 0 mm 4 mps 738 mmHg 60%
11:00 +26°C° 0 mm 4 mps 738 mmHg 54%
12:00 +27°C° 0 mm 4 mps 738 mmHg 47%
13:00 +27°C° 0 mm 4 mps 738 mmHg 50%
14:00 +26°C° 0 mm 3 mps 737 mmHg 53%
15:00 +25°C° 0 mm 2 mps 737 mmHg 56%
16:00 +24°C° 0.2 mm 2 mps 737 mmHg 61%
17:00 +23°C° 0.2 mm 2 mps 737 mmHg 66%
18:00 +23°C° 0.2 mm 2 mps 738 mmHg 72%
19:00 +20°C° 0.9 mm 2 mps 738 mmHg 79%
20:00 +18°C° 0.9 mm 2 mps 738 mmHg 86%
21:00 +17°C° 0.9 mm 2 mps 738 mmHg 94%
22:00 +16°C° 0 mm 2 mps 738 mmHg 93%
23:00 +15°C° 0 mm 1 mps 738 mmHg 93%
Show more

We Need Your Consent

Meteoprog and our Service Providers may store and access personal data such as cookies, device identifiers or other similar technologies on your device and process such data to personalise content and ads, as well as provide social media features and to analyse the traffic.

  • Store and/or access information on your device

    Cookies, device identifiers or other information can be stored or accessed on your device for the purposes indicated above.

  • Personalised ads and content, ad and content measurement, audience insights, and products development

    Ads and content can be personalised based on a profile. More data can be added to better personalise ads and content. Ad and content performance can be measured. Insights about the audience who saw the ads and content can be derived. Such data can be used to develop or improve user’s experience, systems and software.

By clicking ‘I Agree’ you will allow the use of indicated cookies, device identifiers, web beacons or other similar technologies. Your settings can be changed in the browser on your device.

For certain purposes, legitimate interests may be relied on, rather than consent. You can read more about this in our Privacy and Cookie Policy.